This is the latest recevied weather packets stored in our database for station/object KC3UTO. If no packets are shown the sender has not sent any weather packets the latest 10 day(s).
| Time | Temp. | Humidity | Pressure | Rain* | Wind** | Luminosity | Snow |
|---|---|---|---|---|---|---|---|
| 1777321410 | 21.11° C | 37% | 1021.9 hPa | 0 mm | - | 71 W/m² | - |
| 1777321108 | 21.11° C | 36% | 1021.8 hPa | 0 mm | - | 93 W/m² | - |
| 1777320805 | 21.11° C | 33% | 1021.9 hPa | 0 mm | - | 131 W/m² | - |
| 1777320502 | 21.11° C | 33% | 1021.9 hPa | 0 mm | - | 200 W/m² | - |
| 1777320199 | 21.11° C | 31% | 1022 hPa | 0 mm | - | 90 W/m² | - |
| 1777319896 | 21.11° C | 32% | 1021.9 hPa | 0 mm | - | 87 W/m² | - |
| 1777319593 | 20.56° C | 35% | 1022 hPa | 0 mm | - | 112 W/m² | - |
| 1777319290 | 21.11° C | 39% | 1022 hPa | 0 mm | - | 59 W/m² | - |
| 1777318987 | 21.11° C | 36% | 1022 hPa | 0 mm | - | 80 W/m² | - |
| 1777318684 | 21.11° C | 36% | 1022 hPa | 0 mm | - | 62 W/m² | - |
| 1777318380 | 21.11° C | 37% | 1022 hPa | 0 mm | - | 64 W/m² | - |
| 1777318077 | 21.11° C | 37% | 1022 hPa | 0 mm | - | 324 W/m² | - |
| 1777317774 | 21.11° C | 39% | 1022 hPa | 0 mm | - | 171 W/m² | - |
| 1777317471 | 21.11° C | 36% | 1022 hPa | 0 mm | - | 103 W/m² | - |
| 1777317168 | 21.11° C | 36% | 1022 hPa | 0 mm | - | 322 W/m² | - |
| 1777316863 | 21.11° C | 34% | 1022 hPa | 0 mm | - | 779 W/m² | - |
| 1777316561 | 21.67° C | 34% | 1022 hPa | 0 mm | - | 789 W/m² | - |
| 1777316257 | 21.67° C | 36% | 1022.2 hPa | 0 mm | - | 797 W/m² | - |
| 1777315954 | 22.22° C | 33% | 1021.8 hPa | 0 mm | - | 808 W/m² | - |
| 1777315653 | 21.67° C | 35% | 1022.2 hPa | 0 mm | - | 821 W/m² | - |
| 1777315351 | 21.67° C | 34% | 1021.9 hPa | 0 mm | - | 828 W/m² | - |
| 1777315049 | 21.11° C | 36% | 1021.9 hPa | 0 mm | - | 840 W/m² | - |
| 1777314749 | 20.56° C | 37% | 1021.8 hPa | 0 mm | - | 849 W/m² | - |
| 1777314446 | 20.56° C | 36% | 1021.9 hPa | 0 mm | - | 858 W/m² | - |
| 1777314142 | 20.56° C | 35% | 1022 hPa | 0 mm | - | 866 W/m² | - |
* Rain latest hour (hover to see other rain measurements)
** Current wind speed in m/s (hover to see current wind gust speed)